KZR921 UATT-EDDF

Flight info

Callsign KZR921
Flight time N/A
Altitude 28000
Route RASAM/N0462F300 N199 LUSAL N319 ADEKI N644 TETRO M10 SARPI UM10 GOKPA/N0460F320 UL746 ODERO L621 REVDA DCT DEGET DCT ARSIN DCT SUBEN FAWU2C
Aircraft A21N/M-SDE3FGHIRWY/LB1

Departure

Time 2026-05-08 10:00
Airport Aktobe International Airport (UATT)

Arrival

Time N/A
Airport Frankfurt Main Airport (EDDF)
Time Latitude Longitude Altitude Speed Heading
2026-05-08 09:28 50.24831 57.20973 721 ft 0 kts 44°
2026-05-08 09:47 50.24827 57.20966 721 ft 2 kts 50°
2026-05-08 09:47 50.24817 57.20948 721 ft 2 kts 42°
2026-05-08 09:48 50.24806 57.20933 721 ft 2 kts 44°
2026-05-08 09:48 50.24795 57.20916 721 ft 2 kts 44°
2026-05-08 09:48 50.24785 57.20899 721 ft 2 kts 49°
2026-05-08 09:48 50.24775 57.20882 721 ft 2 kts 43°
2026-05-08 09:49 50.24764 57.20866 721 ft 2 kts 45°
2026-05-08 09:49 50.24755 57.20852 721 ft 1 kts 46°
2026-05-08 09:49 50.24747 57.20844 721 ft 2 kts
2026-05-08 09:49 50.24734 57.20849 721 ft 2 kts 320°
2026-05-08 09:50 50.24722 57.20863 721 ft 2 kts 316°
2026-05-08 09:50 50.24712 57.20880 721 ft 2 kts 314°
2026-05-08 09:50 50.24701 57.20896 722 ft 2 kts 317°
2026-05-08 09:50 50.24690 57.20912 722 ft 2 kts 315°
2026-05-08 09:51 50.24687 57.20917 722 ft 0 kts 316°
2026-05-08 09:52 50.24694 57.20906 722 ft 3 kts 316°
2026-05-08 09:53 50.24718 57.20871 721 ft 7 kts 316°
2026-05-08 09:53 50.24764 57.20799 721 ft 11 kts 314°
2026-05-08 09:53 50.24823 57.20704 721 ft 13 kts 314°
2026-05-08 09:53 50.24892 57.20597 719 ft 14 kts 316°
2026-05-08 09:54 50.24968 57.20482 718 ft 15 kts 315°
2026-05-08 09:54 50.25044 57.20361 717 ft 15 kts 314°
2026-05-08 09:54 50.25120 57.20242 717 ft 15 kts 314°
2026-05-08 09:54 50.25195 57.20126 717 ft 15 kts 315°
2026-05-08 09:55 50.25255 57.20021 717 ft 12 kts 296°
2026-05-08 09:55 50.25225 57.19904 718 ft 11 kts 223°
2026-05-08 09:55 50.25174 57.19823 721 ft 9 kts 226°
2026-05-08 09:55 50.25153 57.19735 721 ft 9 kts 289°
2026-05-08 09:56 50.25194 57.19651 721 ft 10 kts 314°
2026-05-08 09:56 50.25254 57.19559 721 ft 13 kts 314°
2026-05-08 09:56 50.25322 57.19450 721 ft 15 kts 315°
2026-05-08 09:56 50.25402 57.19328 719 ft 17 kts 315°
2026-05-08 09:57 50.25597 57.19080 712 ft 15 kts 348°
2026-05-08 09:57 50.25643 57.19001 711 ft 8 kts 232°
2026-05-08 09:57 50.25605 57.19012 712 ft 5 kts 146°
2026-05-08 09:58 50.25578 57.19054 713 ft 5 kts 132°
2026-05-08 09:58 50.25564 57.19077 713 ft 0 kts 134°
2026-05-08 09:58 50.25564 57.19078 713 ft 0 kts 134°
2026-05-08 09:58 50.25563 57.19078 713 ft 0 kts 134°
2026-05-08 09:59 50.25469 57.19224 716 ft 52 kts 135°
2026-05-08 09:59 50.25053 57.19869 721 ft 114 kts 135°
2026-05-08 09:59 50.24349 57.20962 727 ft 166 kts 135°
2026-05-08 10:00 50.23447 57.22378 863 ft 196 kts 135°
2026-05-08 10:00 50.22499 57.23866 1533 ft 195 kts 135°
2026-05-08 10:00 50.21538 57.25297 2289 ft 191 kts 144°
2026-05-08 10:00 50.20301 57.25890 2718 ft 193 kts 186°
2026-05-08 10:01 50.19096 57.24929 2933 ft 206 kts 225°
2026-05-08 10:01 50.18388 57.22916 3170 ft 220 kts 248°
2026-05-08 10:01 50.17827 57.20590 3348 ft 237 kts 246°
2026-05-08 10:01 50.17186 57.18147 3621 ft 250 kts 245°
2026-05-08 10:02 50.16477 57.15577 3952 ft 264 kts 244°
2026-05-08 10:02 50.15501 57.13197 4461 ft 266 kts 220°
2026-05-08 10:02 50.13934 57.11701 5093 ft 263 kts 201°
2026-05-08 10:02 50.12239 57.10722 5650 ft 265 kts 198°
2026-05-08 10:03 50.10501 57.09786 6167 ft 269 kts 198°
2026-05-08 10:03 50.08764 57.08822 6694 ft 271 kts 198°
2026-05-08 10:03 50.06990 57.07805 7237 ft 273 kts 199°
2026-05-08 10:03 50.05202 57.06755 7780 ft 275 kts 199°
2026-05-08 10:04 50.03399 57.05685 8312 ft 277 kts 199°
2026-05-08 10:04 50.01613 57.04615 8800 ft 279 kts 200°
2026-05-08 10:04 49.99793 57.03520 9293 ft 281 kts 200°
2026-05-08 10:04 49.97956 57.02412 9801 ft 283 kts 200°
2026-05-08 10:05 49.96126 57.01308 10248 ft 286 kts 200°
2026-05-08 10:05 49.94237 57.00169 10473 ft 297 kts 199°
2026-05-08 10:05 49.92279 56.98990 10687 ft 309 kts 199°
2026-05-08 10:05 49.90235 56.97760 10899 ft 320 kts 200°
2026-05-08 10:06 49.88148 56.96506 11105 ft 331 kts 200°
2026-05-08 10:06 49.85967 56.95194 11306 ft 342 kts 200°
2026-05-08 10:06 49.83700 56.93831 11505 ft 352 kts 199°
2026-05-08 10:06 49.81408 56.92455 11692 ft 362 kts 200°
2026-05-08 10:07 49.79020 56.91022 11875 ft 372 kts 200°
2026-05-08 10:07 49.76598 56.89569 12077 ft 380 kts 200°
2026-05-08 10:07 49.74112 56.88081 12429 ft 384 kts 200°
2026-05-08 10:07 49.71624 56.86592 12854 ft 386 kts 200°
2026-05-08 10:08 49.69113 56.85052 13261 ft 388 kts 202°
2026-05-08 10:08 49.66689 56.83287 13664 ft 390 kts 206°
2026-05-08 10:08 49.64323 56.81205 14039 ft 393 kts 210°
2026-05-08 10:08 49.62026 56.78896 14419 ft 395 kts 212°
2026-05-08 10:09 49.59736 56.76555 14787 ft 397 kts 212°
2026-05-08 10:09 49.57419 56.74188 15143 ft 399 kts 212°
2026-05-08 10:09 49.55118 56.71839 15532 ft 400 kts 212°
2026-05-08 10:09 49.52822 56.69499 15871 ft 402 kts 212°
2026-05-08 10:10 49.50474 56.67110 16214 ft 404 kts 212°
2026-05-08 10:10 49.48132 56.64727 16524 ft 406 kts 212°
2026-05-08 10:10 49.45768 56.62331 16828 ft 408 kts 212°
2026-05-08 10:10 49.43401 56.59931 17163 ft 409 kts 212°
2026-05-08 10:11 49.41056 56.57558 17485 ft 410 kts 212°
2026-05-08 10:11 49.38662 56.55139 17791 ft 412 kts 212°
2026-05-08 10:11 49.36281 56.52735 18118 ft 412 kts 212°
2026-05-08 10:11 49.33881 56.50316 18397 ft 414 kts 213°
2026-05-08 10:12 49.31476 56.47893 18686 ft 415 kts 213°
2026-05-08 10:12 49.29059 56.45461 18959 ft 417 kts 213°
2026-05-08 10:12 49.26634 56.43026 19239 ft 418 kts 213°
2026-05-08 10:12 49.24223 56.40607 19500 ft 419 kts 213°
2026-05-08 10:13 49.21776 56.38150 19755 ft 421 kts 213°
2026-05-08 10:13 49.19333 56.35704 19999 ft 422 kts 213°
2026-05-08 10:13 49.16867 56.33238 20256 ft 423 kts 212°
2026-05-08 10:13 49.14411 56.30787 20497 ft 425 kts 213°
2026-05-08 10:14 49.11937 56.28318 20725 ft 426 kts 213°
2026-05-08 10:14 49.09456 56.25847 20955 ft 428 kts 213°
2026-05-08 10:14 49.06974 56.23377 21185 ft 429 kts 213°
2026-05-08 10:14 49.04481 56.20898 21397 ft 431 kts 213°
2026-05-08 10:15 49.01945 56.18378 21578 ft 433 kts 213°
2026-05-08 10:15 48.99453 56.15907 21777 ft 434 kts 213°
2026-05-08 10:15 48.96911 56.13388 21960 ft 436 kts 213°
2026-05-08 10:15 48.94362 56.10865 22133 ft 438 kts 213°
2026-05-08 10:16 48.91807 56.08340 22320 ft 440 kts 213°
2026-05-08 10:16 48.89257 56.05824 22527 ft 440 kts 213°
2026-05-08 10:16 48.86709 56.03313 22773 ft 440 kts 213°
2026-05-08 10:16 48.84135 56.00779 22980 ft 441 kts 213°
2026-05-08 10:17 48.81547 55.98235 23142 ft 442 kts 213°
2026-05-08 10:17 48.78966 55.95696 23306 ft 444 kts 214°
2026-05-08 10:17 48.76401 55.93182 23485 ft 445 kts 213°
2026-05-08 10:17 48.73788 55.90625 23724 ft 444 kts 214°
2026-05-08 10:18 48.71230 55.88126 23977 ft 443 kts 214°
2026-05-08 10:18 48.68633 55.85590 24220 ft 442 kts 214°
2026-05-08 10:18 48.66050 55.83070 24440 ft 441 kts 214°
2026-05-08 10:18 48.63479 55.80563 24636 ft 442 kts 214°
2026-05-08 10:19 48.60909 55.78061 24819 ft 442 kts 214°
2026-05-08 10:19 48.58336 55.75560 25006 ft 442 kts 214°
2026-05-08 10:19 48.55771 55.73070 25198 ft 442 kts 214°
2026-05-08 10:20 48.50605 55.68063 25617 ft 441 kts 214°
2026-05-08 10:20 48.48040 55.65581 25838 ft 440 kts 215°
2026-05-08 10:20 48.45484 55.63112 26023 ft 440 kts 215°
2026-05-08 10:20 48.42907 55.60622 26221 ft 440 kts 215°
2026-05-08 10:21 48.40312 55.58121 26364 ft 440 kts 215°
2026-05-08 10:21 48.37752 55.55656 26498 ft 441 kts 215°
2026-05-08 10:21 48.35184 55.53187 26632 ft 442 kts 215°
2026-05-08 10:21 48.32565 55.50669 26770 ft 443 kts 215°
2026-05-08 10:22 48.29975 55.48185 26893 ft 444 kts 215°
2026-05-08 10:22 48.27414 55.45729 27048 ft 444 kts 215°
2026-05-08 10:22 48.24784 55.43212 27179 ft 444 kts 215°
2026-05-08 10:22 48.22187 55.40730 27286 ft 445 kts 215°
2026-05-08 10:23 48.19581 55.38245 27413 ft 446 kts 215°
2026-05-08 10:23 48.16967 55.35754 27548 ft 446 kts 215°
2026-05-08 10:23 48.14345 55.33257 27704 ft 447 kts 214°
2026-05-08 10:23 48.11765 55.30804 27818 ft 448 kts 215°
2026-05-08 10:24 48.09129 55.28300 27920 ft 449 kts 215°
2026-05-08 10:24 48.06491 55.25798 27953 ft 448 kts 215°
2026-05-08 10:24 48.03865 55.23309 27958 ft 448 kts 215°
2026-05-08 10:24 48.01260 55.20844 27962 ft 447 kts 215°
2026-05-08 10:25 47.98634 55.18359 27958 ft 449 kts 215°
2026-05-08 10:25 47.95993 55.15867 27957 ft 449 kts 215°
2026-05-08 10:25 47.93342 55.13367 27956 ft 449 kts 215°
2026-05-08 10:25 47.90732 55.10908 27959 ft 449 kts 215°
2026-05-08 10:26 47.88077 55.08410 27962 ft 449 kts 215°
2026-05-08 10:26 47.85454 55.05944 27962 ft 449 kts 215°
2026-05-08 10:26 47.82806 55.03459 27965 ft 449 kts 215°
2026-05-08 10:26 47.80211 55.01028 27967 ft 449 kts 215°
2026-05-08 10:27 47.77562 54.98549 27970 ft 448 kts 215°
2026-05-08 10:27 47.74933 54.96091 27972 ft 449 kts 215°
2026-05-08 10:27 47.72309 54.93641 27970 ft 449 kts 215°
2026-05-08 10:27 47.69665 54.91175 27970 ft 449 kts 215°
2026-05-08 10:28 47.67035 54.88724 27970 ft 448 kts 215°
2026-05-08 10:28 47.64385 54.86259 27970 ft 448 kts 215°
2026-05-08 10:28 47.61740 54.83800 27976 ft 448 kts 216°
2026-05-08 10:28 47.59124 54.81372 27977 ft 448 kts 216°
2026-05-08 10:29 47.56459 54.78900 27982 ft 449 kts 215°
2026-05-08 10:29 47.53835 54.76469 27982 ft 449 kts 215°
2026-05-08 10:29 47.51210 54.74041 27985 ft 449 kts 216°
2026-05-08 10:29 47.48569 54.71603 27990 ft 448 kts 215°
2026-05-08 10:30 47.45901 54.69141 27906 ft 449 kts 216°
2026-05-08 10:30 47.43293 54.66739 27874 ft 449 kts 216°
2026-05-08 10:30 47.40642 54.64298 27860 ft 449 kts 216°
2026-05-08 10:30 47.37997 54.61865 27855 ft 449 kts 216°
2026-05-08 10:31 47.35344 54.59430 27862 ft 449 kts 216°
2026-05-08 10:31 47.32693 54.56998 27851 ft 450 kts 216°
2026-05-08 10:31 47.30052 54.54577 27849 ft 449 kts 216°
2026-05-08 10:31 47.27392 54.52145 27851 ft 449 kts 216°
2026-05-08 10:32 47.24774 54.49753 27853 ft 449 kts 216°
2026-05-08 10:32 47.22095 54.47308 27850 ft 449 kts 216°
2026-05-08 10:32 47.19482 54.44926 27855 ft 448 kts 216°
2026-05-08 10:32 47.16837 54.42517 27851 ft 448 kts 216°
2026-05-08 10:33 47.14194 54.40113 27855 ft 447 kts 216°
2026-05-08 10:33 47.11533 54.37696 27855 ft 448 kts 216°
2026-05-08 10:33 47.08882 54.35290 27853 ft 449 kts 216°
2026-05-08 10:33 47.06240 54.32896 27853 ft 448 kts 215°
2026-05-08 10:34 47.03608 54.30512 27853 ft 448 kts 215°
2026-05-08 10:34 47.00968 54.28125 27850 ft 448 kts 215°
2026-05-08 10:34 46.98298 54.25713 27861 ft 448 kts 215°
2026-05-08 10:34 46.95663 54.23336 27861 ft 448 kts 215°
2026-05-08 10:35 46.93001 54.20937 27860 ft 449 kts 215°
2026-05-08 10:35 46.90361 54.18562 27864 ft 448 kts 215°
2026-05-08 10:35 46.87710 54.16179 27868 ft 448 kts 215°
2026-05-08 10:35 46.85067 54.13805 27865 ft 448 kts 214°
2026-05-08 10:36 46.82408 54.11422 27863 ft 448 kts 214°
2026-05-08 10:36 46.79754 54.09045 27870 ft 448 kts 214°
2026-05-08 10:36 46.77133 54.06700 27872 ft 448 kts 215°
2026-05-08 10:36 46.74485 54.04333 27877 ft 448 kts 214°
2026-05-08 10:37 46.71830 54.01963 27878 ft 448 kts 214°
2026-05-08 10:37 46.69170 53.99593 27878 ft 448 kts 214°
2026-05-08 10:37 46.66530 53.97241 27876 ft 448 kts 215°
2026-05-08 10:37 46.63840 53.94849 27872 ft 449 kts 214°
2026-05-08 10:38 46.61205 53.92507 27874 ft 449 kts 214°
2026-05-08 10:38 46.58534 53.90136 27878 ft 449 kts 214°
2026-05-08 10:38 46.55873 53.87777 27879 ft 449 kts 214°
2026-05-08 10:38 46.53235 53.85442 27880 ft 449 kts 214°
2026-05-08 10:39 46.50565 53.83081 27878 ft 449 kts 214°
2026-05-08 10:39 46.47878 53.80708 27882 ft 449 kts 214°
2026-05-08 10:39 46.45212 53.78356 27883 ft 449 kts 214°
2026-05-08 10:39 46.42556 53.76015 27887 ft 449 kts 214°
2026-05-08 10:40 46.39893 53.73672 27883 ft 450 kts 214°
2026-05-08 10:40 46.37233 53.71334 27887 ft 450 kts 214°
2026-05-08 10:40 46.34565 53.68991 27888 ft 450 kts 214°
2026-05-08 10:40 46.31873 53.66629 27891 ft 450 kts 214°
2026-05-08 10:41 46.29184 53.64274 27889 ft 451 kts 214°
2026-05-08 10:41 46.26527 53.61948 27893 ft 451 kts 214°
2026-05-08 10:41 46.23846 53.59605 27893 ft 451 kts 214°
2026-05-08 10:41 46.21158 53.57259 27893 ft 451 kts 214°
2026-05-08 10:42 46.18486 53.54928 27895 ft 451 kts 214°
2026-05-08 10:42 46.15792 53.52580 27902 ft 452 kts 214°
2026-05-08 10:42 46.13126 53.50260 27910 ft 451 kts 214°
2026-05-08 10:42 46.10442 53.47929 27904 ft 451 kts 214°
2026-05-08 10:43 46.07767 53.45608 27908 ft 452 kts 214°
2026-05-08 10:43 46.05085 53.43282 27910 ft 452 kts 214°
2026-05-08 10:43 46.02383 53.40942 27911 ft 453 kts 214°
2026-05-08 10:43 45.99677 53.38599 27921 ft 453 kts 214°
2026-05-08 10:44 45.96987 53.36275 27922 ft 453 kts 214°
2026-05-08 10:44 45.94270 53.33931 27924 ft 453 kts 213°
2026-05-08 10:44 45.91600 53.31630 27926 ft 453 kts 213°
2026-05-08 10:44 45.88885 53.29292 27921 ft 452 kts 213°
2026-05-08 10:45 45.86218 53.26997 27921 ft 452 kts 213°
2026-05-08 10:45 45.83521 53.24680 27923 ft 452 kts 213°
2026-05-08 10:45 45.80819 53.22360 27930 ft 452 kts 213°
2026-05-08 10:45 45.78136 53.20061 27927 ft 452 kts 213°
2026-05-08 10:46 45.75414 53.17730 27932 ft 452 kts 213°
2026-05-08 10:46 45.72749 53.15451 27933 ft 452 kts 213°
2026-05-08 10:46 45.70055 53.13149 27937 ft 452 kts 213°
2026-05-08 10:46 45.67348 53.10838 27937 ft 452 kts 213°
2026-05-08 10:47 45.64648 53.08539 27934 ft 451 kts 213°
2026-05-08 10:47 45.61969 53.06259 27939 ft 452 kts 213°
2026-05-08 10:47 45.59254 53.03950 27941 ft 452 kts 213°
2026-05-08 10:47 45.56575 53.01675 27936 ft 451 kts 213°
2026-05-08 10:48 45.53877 52.99385 27937 ft 451 kts 213°
2026-05-08 10:48 45.51196 52.97112 27942 ft 451 kts 213°
2026-05-08 10:48 45.48512 52.94839 27940 ft 451 kts 212°
2026-05-08 10:48 45.45805 52.92551 27944 ft 451 kts 212°
2026-05-08 10:49 45.43105 52.90270 27944 ft 451 kts 213°
2026-05-08 10:49 45.40434 52.88017 27943 ft 451 kts 212°
2026-05-08 10:49 45.37744 52.85750 27943 ft 451 kts 212°
2026-05-08 10:49 45.35046 52.83479 27944 ft 452 kts 212°
2026-05-08 10:50 45.32327 52.81192 27948 ft 452 kts 212°
2026-05-08 10:50 45.29657 52.78950 27947 ft 452 kts 212°
2026-05-08 10:50 45.26939 52.76670 27947 ft 452 kts 212°
2026-05-08 10:50 45.24234 52.74401 27950 ft 452 kts 212°
2026-05-08 10:51 45.21520 52.72128 27951 ft 453 kts 212°
2026-05-08 10:51 45.18816 52.69868 27949 ft 453 kts 212°
2026-05-08 10:51 45.16101 52.67601 27954 ft 454 kts 212°
2026-05-08 10:51 45.13378 52.65329 27953 ft 454 kts 212°
2026-05-08 10:52 45.10666 52.63068 27960 ft 455 kts 212°
2026-05-08 10:52 45.07954 52.60811 27962 ft 455 kts 212°
2026-05-08 10:52 45.05244 52.58557 27967 ft 454 kts 212°
2026-05-08 10:52 45.02499 52.56276 27968 ft 455 kts 212°
2026-05-08 10:53 44.99784 52.54024 27969 ft 456 kts 212°
2026-05-08 10:53 44.97062 52.51769 27967 ft 458 kts 212°
2026-05-08 10:53 44.94304 52.49487 27967 ft 458 kts 212°
2026-05-08 10:53 44.91550 52.47208 27970 ft 461 kts 212°
2026-05-08 10:54 44.88781 52.44923 27970 ft 463 kts 212°
2026-05-08 10:54 44.86014 52.42643 27978 ft 460 kts 212°
2026-05-08 10:54 44.83284 52.40393 27978 ft 459 kts 212°
2026-05-08 10:54 44.80539 52.38132 27980 ft 460 kts 212°
2026-05-08 10:55 44.77780 52.35860 27981 ft 463 kts 212°
2026-05-08 10:55 44.74963 52.33541 27986 ft 466 kts 211°
2026-05-08 10:55 44.72200 52.31275 27982 ft 467 kts 212°
2026-05-08 10:55 44.69371 52.28962 27985 ft 465 kts 212°
2026-05-08 10:56 44.66624 52.26718 27986 ft 458 kts 212°
2026-05-08 10:56 44.63862 52.24462 27988 ft 458 kts 212°
2026-05-08 10:56 44.61119 52.22218 27990 ft 459 kts 212°
2026-05-08 10:56 44.58379 52.19980 27989 ft 461 kts 212°
2026-05-08 10:57 44.55597 52.17712 27989 ft 458 kts 212°
2026-05-08 10:57 44.52865 52.15489 27992 ft 455 kts 212°
2026-05-08 10:57 44.47443 52.11078 27995 ft 448 kts 212°
2026-05-08 10:58 44.42076 52.06724 28007 ft 445 kts 212°
2026-05-08 10:58 44.36720 52.02390 28009 ft 446 kts 212°
2026-05-08 10:59 44.31373 51.98071 28016 ft 442 kts 211°
2026-05-08 10:59 44.26038 51.93773 28018 ft 442 kts 211°
2026-05-08 11:00 44.20731 51.89507 28022 ft 441 kts 211°
2026-05-08 11:00 44.15402 51.85231 28023 ft 441 kts 211°
2026-05-08 11:01 44.10128 51.81007 28251 ft 440 kts 211°
2026-05-08 11:01 44.07471 51.78883 28520 ft 437 kts 211°
2026-05-08 11:01 44.04847 51.76788 28779 ft 435 kts 211°
2026-05-08 11:02 44.02244 51.74711 28964 ft 434 kts 211°
2026-05-08 11:02 43.97024 51.70552 29324 ft 433 kts 211°
2026-05-08 11:02 43.94425 51.68486 29509 ft 432 kts 211°
2026-05-08 11:03 43.91808 51.66407 29732 ft 430 kts 211°
2026-05-08 11:03 43.89227 51.64359 29906 ft 430 kts 211°
2026-05-08 11:03 43.86629 51.62299 30052 ft 430 kts 211°
2026-05-08 11:03 43.84014 51.60228 30194 ft 430 kts 211°
2026-05-08 11:04 43.81442 51.58192 30383 ft 429 kts 211°
2026-05-08 11:04 43.78837 51.56130 30531 ft 428 kts 211°
2026-05-08 11:04 43.76277 51.54109 30698 ft 427 kts 211°
2026-05-08 11:04 43.73706 51.52080 30882 ft 426 kts 211°
2026-05-08 11:05 43.71127 51.50045 31063 ft 424 kts 211°
2026-05-08 11:05 43.68557 51.48022 31247 ft 422 kts 211°
2026-05-08 11:05 43.66029 51.46032 31417 ft 421 kts 211°
2026-05-08 11:05 43.63500 51.44044 31581 ft 420 kts 211°
2026-05-08 11:06 43.60960 51.42052 31724 ft 419 kts 211°
2026-05-08 11:06 43.58413 51.40054 31839 ft 420 kts 211°
2026-05-08 11:06 43.55875 51.38065 31904 ft 421 kts 211°
2026-05-08 11:06 43.53352 51.36090 32029 ft 420 kts 211°
2026-05-08 11:07 43.50817 51.34110 32054 ft 419 kts 210°
2026-05-08 11:07 43.45751 51.30155 32058 ft 423 kts 210°
2026-05-08 11:08 43.40595 51.26135 32064 ft 428 kts 210°
2026-05-08 11:08 43.35397 51.22094 32065 ft 432 kts 210°
2026-05-08 11:09 43.30169 51.18034 32070 ft 435 kts 210°
2026-05-08 11:09 43.24880 51.13936 32068 ft 437 kts 210°
2026-05-08 11:10 43.19580 51.09839 32068 ft 438 kts 210°
2026-05-08 11:10 43.14268 51.05740 32076 ft 438 kts 210°
2026-05-08 11:11 43.09026 51.01705 32070 ft 423 kts 210°
2026-05-08 11:11 43.03980 50.97829 32082 ft 415 kts 210°
2026-05-08 11:12 42.98943 50.93962 32079 ft 414 kts 210°
2026-05-08 11:12 42.93956 50.90144 32089 ft 413 kts 210°
2026-05-08 11:13 42.88938 50.86309 32088 ft 414 kts 210°
2026-05-08 11:13 42.83926 50.82486 32089 ft 413 kts 210°
2026-05-08 11:14 42.78934 50.78684 32091 ft 415 kts 210°
2026-05-08 11:14 42.73892 50.74854 32091 ft 414 kts 210°
2026-05-08 11:15 42.68885 50.71054 32094 ft 414 kts 210°
2026-05-08 11:15 42.63878 50.67264 32097 ft 414 kts 210°
2026-05-08 11:16 42.58847 50.63462 32097 ft 414 kts 211°
2026-05-08 11:16 42.53810 50.59664 32102 ft 413 kts 211°
2026-05-08 11:17 42.48826 50.55912 32107 ft 413 kts 211°
2026-05-08 11:17 42.43821 50.52148 32107 ft 412 kts 211°
2026-05-08 11:18 42.38807 50.48389 32106 ft 412 kts 211°
2026-05-08 11:18 42.33808 50.44645 32107 ft 413 kts 211°
2026-05-08 11:19 42.28789 50.40892 32101 ft 414 kts 211°
2026-05-08 11:19 42.23758 50.37140 32107 ft 413 kts 211°
2026-05-08 11:20 42.18745 50.33408 32108 ft 414 kts 210°
2026-05-08 11:20 42.13705 50.29663 32116 ft 413 kts 210°
2026-05-08 11:21 42.08662 50.25919 32109 ft 414 kts 210°
2026-05-08 11:21 42.03663 50.22220 32106 ft 413 kts 210°
2026-05-08 11:22 41.98607 50.18481 32099 ft 413 kts 211°
2026-05-08 11:22 41.93604 50.14787 32104 ft 412 kts 210°
2026-05-08 11:23 41.88574 50.11082 32101 ft 413 kts 211°
2026-05-08 11:23 41.83557 50.07395 32104 ft 413 kts 211°
2026-05-08 11:24 41.78547 50.03719 32106 ft 412 kts 211°
2026-05-08 11:24 41.73512 50.00030 32105 ft 412 kts 211°
2026-05-08 11:25 41.68481 49.96349 32108 ft 413 kts 211°
2026-05-08 11:25 41.63449 49.92675 32109 ft 414 kts 211°
2026-05-08 11:26 41.58395 49.88994 32110 ft 420 kts 211°
2026-05-08 11:26 41.53238 49.85241 32106 ft 424 kts 211°
2026-05-08 11:27 41.48029 49.81462 32103 ft 428 kts 211°
2026-05-08 11:27 41.42798 49.77671 32105 ft 430 kts 211°
2026-05-08 11:28 41.37557 49.73880 32104 ft 431 kts 211°
2026-05-08 11:28 41.32303 49.70086 32101 ft 431 kts 211°
2026-05-08 11:29 41.27065 49.66313 32100 ft 430 kts 211°
2026-05-08 11:29 41.21792 49.62518 32102 ft 430 kts 211°
2026-05-08 11:30 41.16560 49.58762 32101 ft 429 kts 211°
2026-05-08 11:30 41.11300 49.54991 32102 ft 429 kts 211°
2026-05-08 11:31 41.06063 49.51245 32098 ft 429 kts 211°
2026-05-08 11:31 41.00823 49.47503 32099 ft 429 kts 211°
2026-05-08 11:32 40.95573 49.43761 32103 ft 429 kts 211°
2026-05-08 11:32 40.90358 49.40048 32106 ft 428 kts 211°
2026-05-08 11:33 40.85125 49.36328 32108 ft 428 kts 211°
2026-05-08 11:33 40.79876 49.32603 32112 ft 427 kts 211°
2026-05-08 11:34 40.74646 49.28898 32114 ft 427 kts 210°
2026-05-08 11:34 40.69530 49.24968 32109 ft 424 kts 218°
2026-05-08 11:35 40.65355 49.19547 32111 ft 423 kts 232°
2026-05-08 11:35 40.62471 49.12868 32117 ft 425 kts 246°
2026-05-08 11:36 40.61066 49.05332 32114 ft 430 kts 261°
2026-05-08 11:36 40.60807 48.97444 32118 ft 432 kts 264°
2026-05-08 11:37 40.60644 48.89523 32123 ft 434 kts 264°
2026-05-08 11:37 40.60481 48.81632 32126 ft 434 kts 265°
2026-05-08 11:38 40.60312 48.73711 32128 ft 434 kts 265°
2026-05-08 11:38 40.60138 48.65828 32139 ft 435 kts 265°
2026-05-08 11:39 40.59957 48.57900 32159 ft 435 kts 265°
2026-05-08 11:39 40.59771 48.49921 32131 ft 435 kts 265°
2026-05-08 11:40 40.59580 48.41989 32155 ft 435 kts 265°
2026-05-08 11:40 40.59382 48.34056 32156 ft 435 kts 264°
2026-05-08 11:41 40.59181 48.26121 32110 ft 435 kts 265°
2026-05-08 11:41 40.58973 48.18184 32112 ft 436 kts 264°
2026-05-08 11:42 40.58757 48.10241 32109 ft 437 kts 265°
2026-05-08 11:42 40.59098 48.02245 32122 ft 444 kts 275°
2026-05-08 11:43 40.60661 47.94356 32141 ft 450 kts 286°
2026-05-08 11:43 40.63431 47.86926 32144 ft 459 kts 297°
2026-05-08 11:44 40.67256 47.80103 32144 ft 464 kts 303°
2026-05-08 11:44 40.71275 47.73493 32150 ft 465 kts 304°
2026-05-08 11:45 40.75328 47.66802 32142 ft 466 kts 304°
2026-05-08 11:45 40.79335 47.60146 32141 ft 466 kts 304°
2026-05-08 11:46 40.83358 47.53441 32142 ft 467 kts 304°
2026-05-08 11:46 40.87380 47.46714 32141 ft 467 kts 304°
2026-05-08 11:47 40.91403 47.39964 32144 ft 468 kts 304°
2026-05-08 11:47 40.95421 47.33208 32143 ft 470 kts 303°
2026-05-08 11:48 40.99454 47.26412 32140 ft 469 kts 303°
2026-05-08 11:48 41.03444 47.19667 32155 ft 470 kts 304°
2026-05-08 11:49 41.07501 47.12803 32137 ft 472 kts 304°
2026-05-08 11:49 41.11523 47.05987 32125 ft 472 kts 304°
2026-05-08 11:50 41.15551 46.99133 32137 ft 473 kts 304°
2026-05-08 11:50 41.19588 46.92254 32122 ft 473 kts 304°
2026-05-08 11:51 41.23613 46.85331 32121 ft 474 kts 303°
2026-05-08 11:51 41.27090 46.77960 32122 ft 471 kts 295°
2026-05-08 11:52 41.29741 46.70025 32125 ft 469 kts 287°
2026-05-08 11:52 41.31514 46.61737 32130 ft 468 kts 279°
2026-05-08 11:53 41.32720 46.53242 32149 ft 468 kts 278°
2026-05-08 11:53 41.33883 46.44746 32135 ft 469 kts 278°
2026-05-08 11:54 41.35048 46.36262 32135 ft 470 kts 278°
2026-05-08 11:54 41.36224 46.27685 32130 ft 470 kts 278°
2026-05-08 11:55 41.37390 46.19159 32129 ft 471 kts 278°
2026-05-08 11:55 41.38543 46.10678 32122 ft 473 kts 278°
2026-05-08 11:56 41.39699 46.02142 32122 ft 474 kts 278°
2026-05-08 11:56 41.40863 45.93489 32137 ft 475 kts 278°
2026-05-08 11:57 41.42023 45.84806 32135 ft 476 kts 278°
2026-05-08 11:57 41.43173 45.76158 32131 ft 476 kts 278°
2026-05-08 11:58 41.44313 45.67529 32136 ft 476 kts 279°
2026-05-08 11:58 41.45455 45.58827 32133 ft 476 kts 279°
2026-05-08 11:59 41.47145 45.45849 32137 ft 477 kts 279°
2026-05-08 11:59 41.48247 45.37184 32141 ft 476 kts 277°
2026-05-08 12:00 41.49030 45.28368 32135 ft 477 kts 275°
2026-05-08 12:00 41.49733 45.19672 32133 ft 478 kts 275°
2026-05-08 12:01 41.50442 45.10886 32135 ft 478 kts 275°
2026-05-08 12:01 41.51144 45.02123 32144 ft 479 kts 275°
2026-05-08 12:02 41.51647 44.95792 32135 ft 480 kts 275°
2026-05-08 12:02 41.52346 44.86973 32134 ft 480 kts 276°
2026-05-08 12:03 41.53037 44.78122 32144 ft 481 kts 276°
2026-05-08 12:03 41.53382 44.73702 32130 ft 469 kts 276°
2026-05-08 12:03 41.53709 44.69475 32144 ft 459 kts 276°
2026-05-08 12:04 41.54358 44.61019 32150 ft 458 kts 276°
2026-05-08 12:04 41.55001 44.52593 32165 ft 457 kts 276°
2026-05-08 12:05 41.55637 44.44147 32177 ft 457 kts 277°
2026-05-08 12:05 41.56265 44.35744 32175 ft 457 kts 277°
2026-05-08 12:06 41.56885 44.27335 32176 ft 457 kts 276°
2026-05-08 12:06 41.57510 44.18945 32182 ft 457 kts 277°
2026-05-08 12:07 41.58177 44.10484 32188 ft 459 kts 277°
2026-05-08 12:07 41.58839 44.02020 32179 ft 461 kts 278°
2026-05-08 12:08 41.59495 43.93531 32181 ft 461 kts 278°
2026-05-08 12:08 41.60144 43.85025 32174 ft 462 kts 278°
2026-05-08 12:09 41.60786 43.76513 32178 ft 462 kts 278°
2026-05-08 12:09 41.61420 43.68034 32189 ft 462 kts 278°
2026-05-08 12:10 41.62051 43.59519 32181 ft 461 kts 278°
2026-05-08 12:10 41.62671 43.51023 32194 ft 462 kts 278°
2026-05-08 12:11 41.63291 43.42482 32190 ft 462 kts 278°
2026-05-08 12:11 41.63906 43.33961 32210 ft 461 kts 278°
2026-05-08 12:12 41.64511 43.25486 32207 ft 462 kts 278°
2026-05-08 12:12 41.65116 43.16925 32192 ft 462 kts 278°
2026-05-08 12:13 41.65712 43.08415 32203 ft 463 kts 278°
2026-05-08 12:13 41.66303 42.99844 32183 ft 463 kts 278°
2026-05-08 12:14 41.66860 42.91324 32188 ft 464 kts 276°
2026-05-08 12:14 41.66896 42.82684 32214 ft 466 kts 270°
2026-05-08 12:15 41.66286 42.74045 32199 ft 468 kts 266°
2026-05-08 12:15 41.65553 42.65419 32203 ft 467 kts 266°
2026-05-08 12:16 41.64826 42.56850 32197 ft 469 kts 266°
2026-05-08 12:16 41.64094 42.48175 32185 ft 470 kts 266°
2026-05-08 12:17 41.63353 42.39482 32178 ft 470 kts 266°
2026-05-08 12:17 41.62614 42.30889 32173 ft 471 kts 266°
2026-05-08 12:18 41.61859 42.22164 32171 ft 472 kts 266°
2026-05-08 12:18 41.61103 42.13506 32178 ft 472 kts 266°
2026-05-08 12:19 41.60341 42.04839 32182 ft 472 kts 266°
2026-05-08 12:19 41.59566 41.96138 32175 ft 472 kts 266°
2026-05-08 12:20 41.58787 41.87449 32162 ft 472 kts 266°
2026-05-08 12:20 41.58007 41.78827 32157 ft 471 kts 266°
2026-05-08 12:21 41.57220 41.70183 32151 ft 470 kts 266°
2026-05-08 12:21 41.56428 41.61575 32145 ft 470 kts 266°
2026-05-08 12:22 41.55627 41.52932 32145 ft 469 kts 266°
2026-05-08 12:22 41.55150 41.44289 32149 ft 465 kts 273°
2026-05-08 12:23 41.55380 41.35735 32156 ft 461 kts 278°
2026-05-08 12:23 41.55881 41.27295 32152 ft 461 kts 278°
2026-05-08 12:24 41.56383 41.18746 32156 ft 460 kts 278°
2026-05-08 12:24 41.56865 41.10263 32151 ft 460 kts 278°
2026-05-08 12:25 41.57335 41.01805 32159 ft 459 kts 278°
2026-05-08 12:25 41.57801 40.93310 32161 ft 458 kts 278°
2026-05-08 12:26 41.58256 40.84897 32153 ft 458 kts 278°
2026-05-08 12:26 41.58704 40.76495 32158 ft 457 kts 278°
2026-05-08 12:27 41.59150 40.68020 32160 ft 457 kts 278°
2026-05-08 12:27 41.59587 40.59552 32166 ft 457 kts 278°
2026-05-08 12:28 41.60015 40.51132 32161 ft 457 kts 278°
2026-05-08 12:28 41.60437 40.42705 32168 ft 457 kts 278°
2026-05-08 12:29 41.60851 40.34300 32173 ft 456 kts 277°
2026-05-08 12:29 41.61261 40.25874 32165 ft 456 kts 277°
2026-05-08 12:30 41.61666 40.17442 32163 ft 455 kts 277°
2026-05-08 12:30 41.62064 40.09021 32172 ft 455 kts 277°
2026-05-08 12:31 41.62455 40.00601 32165 ft 455 kts 277°
2026-05-08 12:31 41.62838 39.92233 32163 ft 454 kts 277°
2026-05-08 12:32 41.63219 39.83816 32165 ft 455 kts 277°
2026-05-08 12:32 41.63591 39.75426 32160 ft 454 kts 277°
2026-05-08 12:33 41.63958 39.67033 32161 ft 454 kts 277°
2026-05-08 12:33 41.64317 39.58624 32161 ft 454 kts 277°
2026-05-08 12:34 41.64670 39.50192 32158 ft 453 kts 277°
2026-05-08 12:34 41.65014 39.41816 32156 ft 453 kts 277°
2026-05-08 12:35 41.65354 39.33431 32158 ft 453 kts 277°
2026-05-08 12:35 41.65686 39.25076 32157 ft 453 kts 277°
2026-05-08 12:36 41.66015 39.16689 32159 ft 453 kts 277°
2026-05-08 12:36 41.66338 39.08287 32161 ft 453 kts 277°
2026-05-08 12:37 41.66651 38.99921 32157 ft 453 kts 277°
2026-05-08 12:37 41.66961 38.91522 32159 ft 452 kts 277°
2026-05-08 12:38 41.67264 38.83157 32155 ft 451 kts 277°
2026-05-08 12:38 41.67560 38.74800 32163 ft 450 kts 277°
2026-05-08 12:39 41.67850 38.66446 32158 ft 451 kts 277°
2026-05-08 12:39 41.68134 38.58105 32160 ft 451 kts 277°
2026-05-08 12:40 41.68411 38.49786 32157 ft 450 kts 277°
2026-05-08 12:40 41.68681 38.41462 32163 ft 450 kts 277°
2026-05-08 12:41 41.68948 38.33115 32161 ft 449 kts 276°
2026-05-08 12:41 41.69205 38.24807 32160 ft 449 kts 276°
2026-05-08 12:42 41.69458 38.16489 32162 ft 448 kts 276°
2026-05-08 12:42 41.69703 38.08227 32159 ft 448 kts 276°
2026-05-08 12:43 41.69944 37.99894 32161 ft 447 kts 276°
2026-05-08 12:43 41.70178 37.91615 32154 ft 447 kts 276°
2026-05-08 12:44 41.70405 37.83380 32153 ft 447 kts 276°
2026-05-08 12:44 41.70627 37.75097 32152 ft 447 kts 276°
2026-05-08 12:45 41.70844 37.66779 32153 ft 447 kts 276°
2026-05-08 12:45 41.71052 37.58546 32151 ft 446 kts 275°
2026-05-08 12:46 41.71252 37.50288 32147 ft 446 kts 275°
2026-05-08 12:46 41.71449 37.41995 32152 ft 446 kts 275°
2026-05-08 12:47 41.71639 37.33729 32154 ft 446 kts 275°
2026-05-08 12:47 41.71823 37.25471 32142 ft 446 kts 275°
2026-05-08 12:48 41.72004 37.17169 32144 ft 446 kts 274°
2026-05-08 12:48 41.72178 37.08878 32136 ft 446 kts 274°
2026-05-08 12:49 41.72344 37.00643 32129 ft 446 kts 274°
2026-05-08 12:49 41.72505 36.92334 32134 ft 446 kts 274°
2026-05-08 12:50 41.72659 36.84103 32131 ft 445 kts 274°
2026-05-08 12:50 41.72807 36.75864 32125 ft 445 kts 274°
2026-05-08 12:51 41.73021 36.63412 32127 ft 445 kts 274°
2026-05-08 12:52 41.73155 36.55160 32120 ft 444 kts 274°
2026-05-08 12:52 41.73341 36.43002 32123 ft 443 kts 274°
2026-05-08 12:53 41.73457 36.35024 32120 ft 442 kts 275°
2026-05-08 12:53 41.73561 36.27577 32129 ft 442 kts 274°
2026-05-08 12:54 41.73665 36.19727 32120 ft 442 kts 274°
2026-05-08 12:54 41.73766 36.11495 32122 ft 441 kts 274°
2026-05-08 12:55 41.73862 36.03280 32119 ft 441 kts 274°
2026-05-08 12:55 41.73953 35.95145 32125 ft 440 kts 274°
2026-05-08 12:56 41.74036 35.87127 32126 ft 440 kts 274°
2026-05-08 12:56 41.74114 35.79057 32122 ft 440 kts 274°
2026-05-08 12:57 41.74187 35.70795 32123 ft 439 kts 274°
2026-05-08 12:57 41.74253 35.62765 32118 ft 439 kts 274°
2026-05-08 12:58 41.74314 35.54677 32119 ft 438 kts 274°
2026-05-08 12:58 41.74369 35.46710 32121 ft 437 kts 274°
2026-05-08 12:59 41.74418 35.38662 32120 ft 437 kts 274°
2026-05-08 12:59 41.74462 35.30569 32123 ft 438 kts 274°
2026-05-08 13:00 41.74501 35.22439 32117 ft 437 kts 274°
2026-05-08 13:00 41.74534 35.14306 32124 ft 437 kts 274°
2026-05-08 13:01 41.74561 35.06233 32139 ft 436 kts 274°
2026-05-08 13:01 41.74583 34.98193 32158 ft 436 kts 274°
2026-05-08 13:02 41.74600 34.90190 32163 ft 436 kts 274°
2026-05-08 13:02 41.74610 34.82520 32163 ft 435 kts 274°
2026-05-08 13:03 41.74614 34.74212 32166 ft 434 kts 274°
2026-05-08 13:03 41.74747 34.66158 32165 ft 433 kts 277°
2026-05-08 13:04 41.75451 34.58185 32167 ft 431 kts 283°
2026-05-08 13:04 41.76759 34.50370 32162 ft 428 kts 289°
2026-05-08 13:05 41.78492 34.42810 32164 ft 428 kts 290°
2026-05-08 13:05 41.80265 34.35254 32160 ft 428 kts 290°
2026-05-08 13:06 41.82051 34.27613 32159 ft 428 kts 290°
2026-05-08 13:06 41.83784 34.20160 32162 ft 428 kts 290°
2026-05-08 13:07 41.85498 34.12754 32149 ft 428 kts 290°
2026-05-08 13:07 41.87234 34.05234 32132 ft 428 kts 290°
2026-05-08 13:08 41.88979 33.97648 32122 ft 428 kts 290°
2026-05-08 13:08 41.90614 33.90517 32116 ft 427 kts 289°
2026-05-08 13:09 41.92445 33.82503 32113 ft 428 kts 289°
2026-05-08 13:09 41.94168 33.74929 32115 ft 427 kts 289°
2026-05-08 13:10 41.95802 33.67255 32369 ft 429 kts 287°
2026-05-08 13:10 41.96553 33.63386 32638 ft 427 kts 287°
2026-05-08 13:10 41.97295 33.59526 32909 ft 425 kts 287°
2026-05-08 13:11 41.98024 33.55729 33139 ft 423 kts 287°
2026-05-08 13:11 41.98756 33.51918 33356 ft 422 kts 287°
2026-05-08 13:11 41.99493 33.48077 33562 ft 421 kts 287°
2026-05-08 13:11 42.00212 33.44324 33749 ft 420 kts 287°
2026-05-08 13:12 42.00938 33.40521 33972 ft 419 kts 287°
2026-05-08 13:12 42.01665 33.36713 34085 ft 418 kts 287°
2026-05-08 13:12 42.03098 33.29191 34086 ft 417 kts 286°
2026-05-08 13:13 42.04509 33.21745 34072 ft 417 kts 286°
2026-05-08 13:13 42.05925 33.14240 34067 ft 416 kts 286°
2026-05-08 13:14 42.07346 33.06713 34074 ft 415 kts 287°
2026-05-08 13:14 42.08878 32.99221 34084 ft 415 kts 287°
2026-05-08 13:15 42.10398 32.91847 34083 ft 414 kts 287°
2026-05-08 13:15 42.11916 32.84421 34086 ft 414 kts 287°
2026-05-08 13:16 42.13426 32.76991 34077 ft 414 kts 287°
2026-05-08 13:16 42.14933 32.69541 34079 ft 413 kts 287°
2026-05-08 13:17 42.16397 32.62268 34090 ft 412 kts 287°
2026-05-08 13:17 42.17880 32.54874 34087 ft 411 kts 287°
2026-05-08 13:18 42.19354 32.47488 34081 ft 411 kts 287°
2026-05-08 13:18 42.20796 32.40244 34084 ft 410 kts 287°
2026-05-08 13:19 42.22240 32.32961 34073 ft 408 kts 286°
2026-05-08 13:19 42.23677 32.25677 34080 ft 408 kts 286°
2026-05-08 13:20 42.25101 32.18437 34076 ft 407 kts 286°
2026-05-08 13:20 42.26489 32.11317 34071 ft 406 kts 286°
2026-05-08 13:21 42.27852 32.04357 34087 ft 406 kts 286°
2026-05-08 13:21 42.29273 31.97082 34089 ft 405 kts 287°
2026-05-08 13:22 42.30734 31.89573 34088 ft 405 kts 286°
2026-05-08 13:22 42.32148 31.82288 34080 ft 405 kts 286°
2026-05-08 13:23 42.33553 31.74990 34075 ft 405 kts 286°
2026-05-08 13:23 42.34955 31.67699 34073 ft 404 kts 286°
2026-05-08 13:24 42.36362 31.60351 34085 ft 404 kts 286°
2026-05-08 13:24 42.37758 31.53040 34082 ft 404 kts 286°
2026-05-08 13:25 42.39153 31.45700 34081 ft 404 kts 286°
2026-05-08 13:25 42.40528 31.38441 34090 ft 404 kts 286°
2026-05-08 13:26 42.41899 31.31177 34083 ft 403 kts 285°
2026-05-08 13:26 42.43269 31.23881 34080 ft 403 kts 285°
2026-05-08 13:27 42.44634 31.16595 34087 ft 403 kts 285°
2026-05-08 13:27 42.45993 31.09303 34082 ft 403 kts 285°
2026-05-08 13:28 42.47360 31.01936 34080 ft 403 kts 285°
2026-05-08 13:28 42.48720 30.94583 34083 ft 403 kts 285°
2026-05-08 13:29 42.50072 30.87235 34079 ft 404 kts 285°
2026-05-08 13:29 42.51414 30.79919 34079 ft 404 kts 285°
2026-05-08 13:30 42.52685 30.72952 34075 ft 404 kts 285°
2026-05-08 13:30 42.54041 30.65503 34071 ft 404 kts 285°
2026-05-08 13:31 42.55376 30.58133 34067 ft 404 kts 285°
2026-05-08 13:31 42.56714 30.50731 34067 ft 404 kts 285°
2026-05-08 13:32 42.58035 30.43369 34064 ft 404 kts 285°
2026-05-08 13:32 42.59528 30.36024 34060 ft 405 kts 290°
2026-05-08 13:33 42.61946 30.29228 34059 ft 406 kts 300°
2026-05-08 13:33 42.65314 30.23198 34052 ft 408 kts 310°
2026-05-08 13:34 42.69516 30.18153 34048 ft 413 kts 320°
2026-05-08 13:34 42.74132 30.13594 34049 ft 413 kts 321°
2026-05-08 13:35 42.78802 30.09027 34055 ft 413 kts 321°
2026-05-08 13:35 42.83445 30.04468 34052 ft 413 kts 321°
2026-05-08 13:36 42.88117 29.99866 34042 ft 415 kts 321°
2026-05-08 13:36 42.92763 29.95280 34047 ft 416 kts 321°
2026-05-08 13:37 42.97438 29.90658 34043 ft 416 kts 321°
2026-05-08 13:37 43.02102 29.86040 34040 ft 416 kts 321°
2026-05-08 13:38 43.06762 29.81413 34049 ft 417 kts 321°
2026-05-08 13:38 43.11429 29.76773 34041 ft 417 kts 321°
2026-05-08 13:39 43.16082 29.72137 34046 ft 417 kts 321°
2026-05-08 13:39 43.20786 29.67441 34048 ft 416 kts 321°
2026-05-08 13:40 43.25428 29.62799 34044 ft 417 kts 321°
2026-05-08 13:40 43.30098 29.58118 34053 ft 417 kts 321°
2026-05-08 13:41 43.34777 29.53419 34045 ft 417 kts 320°
2026-05-08 13:41 43.39431 29.48735 34048 ft 418 kts 321°
2026-05-08 13:42 43.44114 29.44012 34047 ft 418 kts 321°
2026-05-08 13:42 43.48770 29.39310 34049 ft 418 kts 321°
2026-05-08 13:43 43.53091 29.34938 34039 ft 418 kts 320°